Location: Sigmaringen
(48.0900°N, 9.2120°E)
Time: 20:25:11
(UTC+01:00)

N. Korean satellite - Visible Passes

Search period start: 19 November 2017 00:00
Search period end: 29 November 2017 00:00
Orbit: 460 x 515 km, 97.2° (Epoch: 18 November)

Date Brightness Start Highest point End Pass type
(mag) Time Alt. Az. Time Alt. Az. Time Alt. Az.
19 Nov 6.4 18:08:26 10° SSE 18:11:55 71° ENE 18:15:29 10° N visible
20 Nov 7.0 17:45:16 10° SE 17:48:31 37° ENE 17:51:50 10° N visible
20 Nov 9.5 19:19:52 10° SW 19:22:13 17° W 19:24:36 10° NW visible
21 Nov 8.8 06:42:12 10° NNE 06:45:35 31° E 06:48:58 10° SSE visible
21 Nov 7.8 17:22:28 10° ESE 17:25:11 21° ENE 17:27:58 10° NNE visible
21 Nov 8.5 18:55:25 10° SSW 18:58:33 30° W 19:01:46 10° NNW visible
22 Nov 9.8 06:19:19 10° NE 06:21:57 18° E 06:24:35 10° SE visible
22 Nov 7.1 18:31:31 10° S 18:34:59 58° W 18:38:33 10° NNW visible
23 Nov 10.5 05:57:55 10° E 05:58:14 10° E 05:58:34 10° E visible
23 Nov 6.4 18:07:58 10° SSE 18:11:30 71° ENE 18:15:06 10° N visible
24 Nov 7.4 07:05:01 10° NNE 07:08:44 59° E 07:12:27 10° S visible
24 Nov 7.0 17:44:47 10° SE 17:48:05 37° ENE 17:51:27 10° N visible
24 Nov 9.5 19:19:22 10° SW 19:21:46 17° W 19:24:13 10° NW visible
25 Nov 8.8 06:41:46 10° NNE 06:45:10 31° E 06:48:34 10° SSE visible
25 Nov 7.8 17:21:59 10° ESE 17:24:44 21° ENE 17:27:33 10° NNE visible
25 Nov 8.5 18:54:55 10° SSW 18:58:06 30° W 19:01:22 10° NNW visible
26 Nov 9.8 06:18:52 10° NE 06:21:31 18° E 06:24:10 10° SE visible
26 Nov 7.1 18:31:01 10° S 18:34:31 59° W 18:38:07 10° NNW visible
27 Nov 10.5 05:57:26 10° E 05:57:47 10° E 05:58:08 10° E visible
27 Nov 6.4 18:07:28 10° SSE 18:11:00 71° ENE 18:14:39 10° N visible
28 Nov 7.4 07:04:32 10° NNE 07:08:17 59° E 07:11:59 10° S visible
28 Nov 7.1 17:44:15 10° SE 17:47:35 37° ENE 17:50:59 10° N visible
28 Nov 9.5 19:18:48 10° SW 19:21:16 17° W 19:23:46 10° NW visible
